0 HST 1 20580U 90037B 25292.30361102 .00014189 00000-0 51141-3 0 9998 2 20580 28.4688 282.7221 0001978 356.3744 3.6837 15.27008075751661 0 ISS (ZARYA) 1 25544U 98067A 25292.16985965 .00018430 00000-0 33901-3 0 9994 2 25544 51.6340 52.6382 0004293 309.5467 50.5142 15.49237190534391 0 CXO 1 25867U 99040B 25293.72802329 .00000720 00000-0 00000+0 0 9992 2 25867 52.0284 124.4771 8226367 310.6443 0.1841 0.37811257 16412